[[{"header":{"parameterUnit":"m.s-1","parameterCategory":1,"la1":30.2991,"la2":30.254,"lo1":-89.0895,"lo2":-89.0444,"dy":0.0017,"dx":0.0017,"nx":28,"ny":28,"refTime":"2025-02-03T09:00:00:Z","depth":0,"parameterNumber":2,"parameterNumberName":"U-component_of_WINDS"},"data":[0,0,0,0,0,0,0,0,0,0,0,0,0,0,0,0,0,0,0,0,0,0,0,0,0,0,0,0,0,0,0,0,0,0,0,0,0,0,0,0,0,0,0,0,0,0,0,0,0,0,0,0,0,0,0,0,0,0,0.0448,0.0448,0,0.0466,0.0466,0.0466,0.0477,0.0477,0.0477,0.0477,0.0495,0.0496,0.0496,0,0,0,0,0,0,0,0,0,0,0,0,0,0.0422,0.0423,0.0448,0.0448,0.0448,0.0466,0.0466,0.0466,0.0477,0.0477,0.0477,0.0477,0.0495,0.0496,0.0496,0,0,0,0,0,0,0,0,0,0,0,0,0,0.0436,0.0423,0.0448,0.0456,0.0457,0.0466,0.0466,0.0466,0.0477,0.0477,0.0477,0.0477,0.0495,0.0495,0.0496,0.0498,0,0,0.0498,0.0498,0,0,0,0,0,0,0,0,0.0435,0.0437,0.0455,0.0455,0.0456,0.0469,0.0464,0.0477,0.0477,0.0469,0.0477,0.0477,0.0486,0.0488,0.0491,0.0499,0.05,0.0498,0.0498,0.0499,0.0499,0,0,0,0,0,0,0,0.0434,0.0436,0.0455,0.0455,0.0456,0.0458,0.046,0.0466,0.0477,0.047,0.0471,0.0473,0.0487,0.049,0.0491,0.05,0.0498,0.0499,0.0499,0.0499,0.0511,0.0511,0,0,0,0,0,0,0.0432,0.0436,0.0455,0.0456,0.0446,0.0459,0.0461,0.0465,0.0477,0.0479,0.0473,0.0473,0.0489,0.0491,0.0492,0.0495,0.0499,0.0499,0.05,0.0511,0.0511,0.0511,0,0,0,0,0,0,0.0432,0.0434,0.0454,0.0446,0.0449,0.0459,0.0464,0.0465,0.0469,0.0479,0.0481,0.0474,0.0489,0.0491,0.0497,0.0496,0.05,0.05,0.0511,0.0511,0.0511,0.0502,0,0,0,0,0,0,0.0431,0.0434,0.0435,0.0446,0.0449,0.0458,0.0464,0.0466,0.047,0.0471,0.0481,0.0483,0.049,0.0496,0.0497,0.0497,0.0501,0.0511,0.0511,0.0511,0.0502,0.0502,0.0501,0,0,0,0,0,0.043,0.0432,0.0435,0.0437,0.0451,0.0458,0.046,0.0468,0.047,0.0471,0.0478,0.0483,0.0496,0.0496,0.0498,0.0498,0.0511,0.0511,0.0511,0.0503,0.0502,0.0501,0,0,0,0,0,0,0.042,0.0433,0.0437,0.0442,0.0449,0.046,0.0462,0.0467,0.0473,0.0473,0.0482,0.0485,0.0489,0.0494,0.0494,0.0501,0.0504,0.0504,0.0497,0.0496,0.0496,0.0494,0.0501,0,0,0,0,0,0.0419,0.0424,0.0435,0.0438,0.0442,0.0451,0.0455,0.046,0.0467,0.047,0.0477,0.0484,0.049,0.0494,0.0499,0.0503,0.0506,0.0504,0.0503,0.0503,0.0503,0.0505,0.0504,0.051,0.051,0.051,0,0,0.0415,0.0423,0.0426,0.0437,0.0443,0.0448,0.0453,0.0459,0.0462,0.0471,0.0477,0.0482,0.049,0.0495,0.0497,0.0499,0.0502,0.0503,0.0502,0.0502,0.0505,0.0504,0.0504,0.051,0.051,0.051,0,0,0.0412,0.0419,0.0422,0.0428,0.0437,0.0443,0.0444,0.0454,0.0458,0.0464,0.0471,0.0475,0.0485,0.049,0.0494,0.0493,0.0497,0.0494,0.0491,0.0492,0.0492,0.0492,0.0491,0.049,0.0494,0.0494,0.0494,0,0.0407,0.0415,0.0423,0.0428,0.0432,0.0441,0.0444,0.0449,0.046,0.0462,0.0464,0.0477,0.0483,0.0489,0.0488,0.0491,0.0492,0.0493,0.0491,0.0491,0.0491,0.049,0.049,0.0494,0.0494,0.0494,0.0494,0,0.0408,0.0414,0.0415,0.0425,0.043,0.0434,0.0442,0.0446,0.0451,0.0457,0.0462,0.047,0.0477,0.0479,0.0484,0.0485,0.0486,0.049,0.0493,0.049,0.0489,0.0489,0.0493,0.0494,0.0494,0.0494,0,0,0.0399,0.0414,0.0414,0.0418,0.0429,0.0433,0.0437,0.0444,0.0447,0.0454,0.0457,0.0465,0.0469,0.0473,0.0479,0.048,0.0478,0.0484,0.0484,0.0482,0.048,0.0477,0.0476,0.0481,0.0481,0.0481,0.0479,0,0.0397,0.0406,0.0413,0.0418,0.0423,0.0431,0.0435,0.0441,0.0447,0.0451,0.0457,0.0463,0.0467,0.047,0.0472,0.0478,0.0478,0.0478,0.0484,0.0485,0.0482,0.0476,0.0473,0.0471,0.0479,0.0479,0.0479,0,0.0396,0.0403,0.0408,0.0418,0.042,0.0423,0.0431,0.0435,0.0443,0.0446,0.0451,0.0457,0.0461,0.0465,0.0471,0.0471,0.0474,0.0477,0.0477,0.0478,0.0481,0.0476,0.047,0.047,0.0479,0.0479,0.0479,0,0.0389,0.0399,0.0404,0.0407,0.0419,0.042,0.0425,0.0433,0.0437,0.0443,0.0445,0.0452,0.0455,0.046,0.0467,0.0469,0.0472,0.0476,0.0475,0.0475,0.0476,0.0475,0.0469,0.0478,0.0478,0.0478,0.0478,0,0.0386,0.0389,0.04,0.0403,0.0407,0.0415,0.0419,0.0424,0.0431,0.0434,0.0442,0.0445,0.0454,0.0459,0.0464,0.0468,0.047,0.0473,0.0474,0.0472,0.0472,0.0474,0.0474,0.0478,0.0478,0.0478,0.0478,0,0.0378,0.0386,0.0391,0.0402,0.0404,0.0406,0.0415,0.0418,0.0424,0.0428,0.043,0.0439,0.0445,0.0452,0.046,0.0464,0.0467,0.0469,0.0464,0.0465,0.0464,0.0464,0.0459,0.0458,0.0467,0.0467,0.0467,0,0.0375,0.0378,0.0388,0.0392,0.0396,0.0401,0.0405,0.0413,0.0417,0.0425,0.0427,0.0433,0.0438,0.0447,0.0454,0.046,0.0462,0.046,0.0463,0.0461,0.0462,0.0462,0.0462,0.0459,0.0459,0.0459,0.0459,0,0.037,0.0373,0.0379,0.0386,0.039,0.0396,0.0402,0.0404,0.0413,0.0417,0.0423,0.0427,0.0435,0.044,0.0447,0.0452,0.0457,0.0458,0.0458,0.0456,0.0453,0.0454,0.0462,0.0458,0.0458,0.0458,0.0458,0.0458,0.0364,0.0367,0.0374,0.038,0.0386,0.0391,0.0394,0.04,0.0405,0.0412,0.0417,0.0422,0.0429,0.0439,0.0443,0.0447,0.045,0.045,0.045,0.045,0.0449,0.0452,0.0449,0.0449,0.0449,0.0449,0.0449,0,0.0359,0.0364,0.0369,0.0377,0.0382,0.0386,0.0393,0.0396,0.0401,0.0407,0.0412,0.0418,0.0424,0.0431,0.0437,0.0439,0.0442,0.0441,0.044,0.0441,0.0447,0.0446,0.0438,0.0438,0.0438,0.0438,0.0438,0.0438,0.0356,0.0361,0.0365,0.0372,0.0378,0.0383,0.0386,0.0391,0.0396,0.0403,0.0407,0.0412,0.0419,0.0425,0.0431,0.0433,0.0434,0.0432,0.0435,0.044,0.0441,0.0442,0.0441,0.0433,0.0433,0.0429,0.0429,0.0429]},{"header":{"parameterUnit":"m.s-1","parameterCategory":1,"la1":30.2991,"la2":30.254,"lo1":-89.0895,"lo2":-89.0444,"dy":0.0017,"dx":0.0017,"nx":28,"ny":28,"refTime":"2025-02-03T09:00:00:Z","depth":0,"parameterNumber":3,"parameterNumberName":"V-component_of_WINDS"},"data":[0,0,0,0,0,0,0,0,0,0,0,0,0,0,0,0,0,0,0,0,0,0,0,0,0,0,0,0,0,0,0,0,0,0,0,0,0,0,0,0,0,0,0,0,0,0,0,0,0,0,0,0,0,0,0,0,0,0,1.4287,1.4287,0,1.4258,1.4257,1.4257,1.422,1.4219,1.4219,1.4218,1.4187,1.4186,1.4186,0,0,0,0,0,0,0,0,0,0,0,0,0,1.4311,1.4311,1.4287,1.4287,1.4286,1.4258,1.4257,1.4257,1.422,1.4219,1.4219,1.4218,1.4187,1.4186,1.4186,0,0,0,0,0,0,0,0,0,0,0,0,0,1.4293,1.4311,1.4287,1.4265,1.4262,1.4258,1.4257,1.4257,1.422,1.4219,1.4218,1.4218,1.4187,1.4187,1.4186,1.4201,0,0,1.4185,1.4185,0,0,0,0,0,0,0,0,1.4294,1.4292,1.4268,1.4266,1.4264,1.4242,1.4254,1.4238,1.422,1.4236,1.4218,1.4217,1.4206,1.4204,1.42,1.4199,1.4198,1.4185,1.4184,1.4184,1.4184,0,0,0,0,0,0,0,1.4295,1.4293,1.4275,1.4268,1.4265,1.4256,1.4252,1.4251,1.4226,1.4235,1.4232,1.4229,1.4204,1.42,1.4199,1.4198,1.4185,1.4184,1.4184,1.4184,1.4208,1.4209,0,0,0,0,0,0,1.43,1.4294,1.4276,1.4274,1.4277,1.4256,1.4252,1.4249,1.4226,1.4222,1.423,1.4227,1.4202,1.4199,1.4198,1.4214,1.4184,1.4184,1.4184,1.4208,1.4209,1.421,0,0,0,0,0,0,1.4301,1.4299,1.4277,1.4284,1.428,1.4257,1.4254,1.4249,1.4246,1.4222,1.4218,1.4231,1.4201,1.4198,1.4201,1.4212,1.4184,1.4183,1.4206,1.4208,1.4209,1.4246,0,0,0,0,0,0,1.4302,1.4299,1.4305,1.4284,1.428,1.4281,1.4255,1.4249,1.4245,1.4242,1.4222,1.4218,1.42,1.4201,1.42,1.4211,1.4183,1.4205,1.4207,1.4209,1.4244,1.4249,1.4253,0,0,0,0,0,1.4303,1.4316,1.4305,1.4303,1.4286,1.4282,1.428,1.4259,1.4246,1.4251,1.4237,1.4218,1.4211,1.4202,1.42,1.4211,1.4204,1.4207,1.4209,1.4242,1.4248,1.4253,0,0,0,0,0,0,1.4338,1.4313,1.4301,1.4308,1.4297,1.4276,1.4282,1.4266,1.4259,1.4256,1.4231,1.4226,1.4232,1.4222,1.4212,1.4225,1.4205,1.4207,1.4231,1.4237,1.4241,1.4243,1.4182,0,0,0,0,0,1.4346,1.4345,1.4323,1.4332,1.4327,1.4306,1.4303,1.4288,1.4276,1.4271,1.4257,1.4245,1.4241,1.4238,1.4232,1.4242,1.4238,1.4249,1.4254,1.4258,1.4259,1.4265,1.427,1.4216,1.4216,1.4216,0,0,1.4364,1.435,1.4351,1.4338,1.4329,1.4328,1.4302,1.4302,1.4301,1.4271,1.4273,1.4262,1.4248,1.4254,1.4256,1.4246,1.4273,1.426,1.4263,1.4263,1.4267,1.4272,1.4277,1.4218,1.4218,1.4217,0,0,1.4396,1.4385,1.4392,1.4383,1.4368,1.4354,1.4356,1.4337,1.4328,1.433,1.4308,1.4306,1.4298,1.429,1.4284,1.4314,1.4297,1.4313,1.4336,1.4342,1.4346,1.435,1.4361,1.4365,1.4315,1.4315,1.4315,0,1.442,1.4418,1.4397,1.4398,1.4394,1.4367,1.4374,1.4366,1.435,1.4348,1.4336,1.4327,1.4315,1.432,1.4327,1.4324,1.4325,1.4315,1.4347,1.4351,1.4354,1.4364,1.4368,1.4317,1.4317,1.4316,1.4316,0,1.4448,1.4447,1.4454,1.444,1.4436,1.444,1.442,1.4418,1.4404,1.4391,1.4393,1.4379,1.437,1.437,1.4356,1.4373,1.4367,1.4352,1.4332,1.4361,1.437,1.4374,1.432,1.4319,1.4318,1.4318,0,0,1.45,1.4476,1.4479,1.4473,1.4456,1.4455,1.4458,1.445,1.4449,1.444,1.4442,1.4436,1.4423,1.4417,1.4401,1.4406,1.4432,1.439,1.439,1.4399,1.445,1.4462,1.4467,1.442,1.4421,1.4422,1.4451,0,1.4529,1.4533,1.4515,1.4524,1.4523,1.4498,1.4501,1.4491,1.4479,1.4477,1.4463,1.446,1.4442,1.4438,1.4442,1.4428,1.4442,1.4425,1.4422,1.4422,1.4427,1.4471,1.4483,1.4512,1.4455,1.4455,1.4456,0,1.4563,1.4557,1.4566,1.4549,1.4548,1.4551,1.4543,1.454,1.4529,1.452,1.4514,1.4497,1.4498,1.448,1.4482,1.4471,1.4469,1.4462,1.4463,1.4462,1.4441,1.4472,1.4521,1.4525,1.4461,1.4461,1.446,0,1.4601,1.4594,1.4599,1.4595,1.4575,1.4578,1.457,1.4557,1.4554,1.4547,1.4545,1.4538,1.4534,1.4529,1.4511,1.4498,1.4515,1.4495,1.4508,1.4509,1.4513,1.4513,1.4562,1.4511,1.4511,1.4511,1.4511,0,1.4636,1.4642,1.4616,1.4619,1.4626,1.4605,1.4612,1.4601,1.4591,1.4591,1.4569,1.457,1.4546,1.4544,1.453,1.4534,1.4533,1.4526,1.4522,1.4528,1.4529,1.4526,1.4523,1.4512,1.4512,1.4512,1.4511,0,1.4679,1.4662,1.4665,1.4647,1.4643,1.4649,1.4633,1.4635,1.4622,1.4623,1.4622,1.4602,1.4599,1.458,1.4573,1.4563,1.4573,1.4565,1.4577,1.4575,1.4589,1.4589,1.4639,1.4645,1.459,1.459,1.4591,0,1.4702,1.4707,1.4689,1.4688,1.4682,1.468,1.4677,1.4657,1.4654,1.4642,1.4646,1.4641,1.4636,1.4633,1.4617,1.4612,1.4603,1.4622,1.4602,1.4609,1.4604,1.4604,1.4605,1.4626,1.4626,1.4627,1.4627,0,1.4745,1.4736,1.4733,1.4727,1.4724,1.4718,1.4711,1.4712,1.4689,1.4687,1.4685,1.4681,1.4674,1.467,1.4662,1.4653,1.4637,1.4634,1.4637,1.4643,1.465,1.4647,1.4589,1.4633,1.4632,1.4632,1.4631,1.4631,1.4779,1.4782,1.4771,1.4768,1.4761,1.4755,1.4756,1.4744,1.4741,1.4734,1.4722,1.4721,1.471,1.4698,1.4691,1.469,1.468,1.4684,1.4685,1.4687,1.469,1.465,1.4688,1.4688,1.4688,1.4688,1.4688,0,1.4821,1.4813,1.481,1.4801,1.4799,1.4785,1.4776,1.4776,1.4775,1.4766,1.4762,1.476,1.4756,1.4741,1.4735,1.4737,1.473,1.4737,1.4736,1.4735,1.4699,1.4697,1.4743,1.4743,1.4743,1.4743,1.4743,1.4743,1.4843,1.4848,1.4838,1.484,1.4831,1.483,1.4827,1.4821,1.4814,1.4812,1.4809,1.48,1.4789,1.4782,1.4779,1.4774,1.4773,1.4783,1.4776,1.4743,1.4737,1.4732,1.473,1.4783,1.4783,1.4812,1.4813,1.4813]}]]